Location: Observatoire de Paris
(48.8363°N, 2.3365°E)
Time: 06:38:11
(UTC+01:00)

Transit 4A - Visible Passes

Search period start: 31 July 2021 00:00
Search period end: 10 August 2021 00:00
Orbit: 872 x 972 km, 66.8° (Epoch: 30 July)

Date Brightness Start Highest point End Pass type
(mag) Time Alt. Az. Time Alt. Az. Time Alt. Az.
31 Jul 7.7 01:13:07 51° S 01:14:36 74° ESE 01:20:26 10° NE visible
31 Jul 9.3 02:56:36 11° W 03:01:29 29° NW 03:06:34 10° NNE visible
31 Jul 10.1 04:46:52 10° NW 04:49:52 14° N 04:52:52 10° NNE visible
31 Jul 9.2 23:38:26 20° ESE 23:38:26 20° ESE 23:42:20 10° ENE visible
01 Aug 7.8 01:21:55 44° SW 01:23:54 81° NW 01:29:46 10° NE visible
01 Aug 9.6 03:06:28 10° W 03:11:08 24° NNW 03:15:47 10° NNE visible
01 Aug 8.7 23:47:11 29° ESE 23:47:16 29° ESE 23:52:12 10° NE visible
02 Aug 8.1 01:30:40 33° WSW 01:33:16 60° NW 01:39:03 10° NNE visible
02 Aug 9.9 03:16:38 10° WNW 03:20:50 20° NNW 03:25:02 10° NNE visible
02 Aug 8.2 23:55:53 41° SE 23:56:22 41° ESE 00:01:48 10° NE visible
03 Aug 8.6 01:39:21 23° WSW 01:42:42 45° NW 01:48:17 10° NNE visible
03 Aug 10.1 03:26:53 10° WNW 03:30:36 17° NNW 03:34:18 10° NNE visible
04 Aug 7.8 00:04:31 51° SSE 00:05:32 59° ESE 00:11:16 10° NE visible
04 Aug 9.1 01:47:59 15° W 01:52:13 34° NW 01:57:31 10° NNE visible
04 Aug 10.2 03:37:10 10° NW 03:40:24 15° NNW 03:43:40 10° NNE visible
04 Aug 9.4 22:29:37 16° E 22:29:37 16° E 22:32:38 10° ENE visible
05 Aug 7.6 00:13:05 48° SSW 00:14:47 83° ESE 00:20:39 10° NE visible
05 Aug 9.5 01:56:52 10° W 02:01:48 27° NW 02:06:44 10° NNE visible
05 Aug 10.3 03:47:22 10° NW 03:50:16 14° N 03:53:09 10° NNE visible
05 Aug 8.9 22:38:06 23° ESE 22:38:19 23° ESE 22:42:46 10° ENE visible
06 Aug 7.9 00:21:33 35° SW 00:24:07 73° NW 00:29:57 10° NNE visible
06 Aug 9.8 02:06:57 10° W 02:11:27 22° NNW 02:15:58 10° NNE visible
06 Aug 10.4 03:57:26 10° NNW 04:00:08 13° N 04:02:51 10° NNE visible
06 Aug 8.4 22:46:28 31° SE 22:47:22 33° ESE 22:52:31 10° NE visible
07 Aug 8.4 00:29:54 23° WSW 00:33:30 54° NW 00:39:13 10° NNE visible
07 Aug 10.1 02:17:10 10° WNW 02:21:11 19° NNW 02:25:12 10° NNE visible
07 Aug 10.4 04:07:18 10° NNW 04:10:01 13° N 04:12:46 10° NNE visible
07 Aug 8.0 22:54:39 35° SSE 22:56:30 47° ESE 23:02:04 10° NE visible
08 Aug 8.9 00:38:05 13° WSW 00:42:57 40° NW 00:48:27 10° NNE visible
08 Aug 10.3 02:27:25 10° NW 02:30:58 16° NNW 02:34:30 10° NNE visible
08 Aug 10.5 04:16:55 10° NNW 04:19:54 14° N 04:22:54 10° NE visible
08 Aug 9.5 21:19:11 11° ESE 21:20:28 12° E 21:22:24 10° E visible
08 Aug 7.7 23:02:36 28° SSW 23:05:43 67° ESE 23:11:30 10° NE visible
09 Aug 9.4 00:47:19 10° W 00:52:30 31° NW 00:57:41 10° NNE visible
09 Aug 10.4 02:37:41 10° NW 02:40:48 14° NNW 02:43:55 10° NNE visible
09 Aug 10.4 04:26:21 10° NNW 04:29:45 15° NNE 04:33:09 10° NE visible
09 Aug 9.1 21:26:47 14° SE 21:29:24 18° ESE 21:33:10 10° ENE visible
09 Aug 7.7 23:10:10 16° SW 23:14:58 89° NW 23:20:51 10° NE visible
